,,,PA_Meas_PMT16A,,PR_Meas_QMR101_102,,RH_Meas_QMH101,,SR_Meas_QMS101,,TA_Meas_QMH101,,GenWind,,GenWind,
date,time,status,PA,status,PR,status,RH,status,SR,status,TA,status,DirAvg,status,SpdAvg,
2014-12-05, 00:00:04,VALID,1011.03,VALID,0,INVALID,123.301,VALID,0,VALID,24.7445,VALID,29,VALID,0,
2014-12-05, 00:01:04,VALID,1011,VALID,0,INVALID,123.415,VALID,0.112112,VALID,24.7659,VALID,29,VALID,0,
2014-12-05, 00:02:04,VALID,1010.99,VALID,0,INVALID,123.514,VALID,0,VALID,24.7659,VALID,29,VALID,0,
2014-12-05, 00:03:04,VALID,1010.97,VALID,0,INVALID,123.591,VALID,0,VALID,24.725,VALID,29,VALID,0,
2014-12-05, 00:04:04,VALID,1010.94,VALID,0,INVALID,123.728,VALID,0,VALID,24.7464,VALID,29,VALID,0,
2014-12-05, 00:05:04,VALID,1010.92,VALID,0,INVALID,123.835,VALID,0,VALID,24.725,VALID,29,VALID,0,
2014-12-05, 00:06:04,VALID,1010.87,VALID,0,INVALID,123.949,VALID,0,VALID,24.7269,VALID,29,VALID,0,
2014-12-05, 00:07:04,VALID,1010.84,VALID,0,INVALID,123.995,VALID,0,VALID,24.686,VALID,29,VALID,0,
2014-12-05, 00:08:04,VALID,1010.84,VALID,0,INVALID,124.056,VALID,0.112112,VALID,24.7055,VALID,29,VALID,0,
2014-12-05, 00:09:04,VALID,1010.82,VALID,0,INVALID,124.109,VALID,0,VALID,24.7074,VALID,29,VALID,0,
2014-12-05, 00:10:04,VALID,1010.81,VALID,0,INVALID,124.163,VALID,0.112112,VALID,24.7074,VALID,29,VALID,0,
2014-12-05, 00:11:04,VALID,1010.82,VALID,0,INVALID,124.506,VALID,0.112112,VALID,24.6666,VALID,29,VALID,0,
2014-12-05, 00:12:04,VALID,1010.83,VALID,0,INVALID,124.75,VALID,0,VALID,24.6879,VALID,29,VALID,0,
2014-12-05, 00:13:04,VALID,1010.82,VALID,0,INVALID,124.849,VALID,0.112112,VALID,24.6879,VALID,29,VALID,0,
2014-12-05, 00:14:04,VALID,1010.81,VALID,0,INVALID,124.933,VALID,0.112112,VALID,24.6879,VALID,29,VALID,0,
2014-12-05, 00:15:04,VALID,1010.78,VALID,0,INVALID,125.154,VALID,0,VALID,24.6879,VALID,29,VALID,0,
2014-12-05, 00:16:04,VALID,1010.77,VALID,0,INVALID,125.23,VALID,0,VALID,24.6879,VALID,29,VALID,0,
2014-12-05, 00:17:04,VALID,1010.77,VALID,0,INVALID,125.413,VALID,0,VALID,24.6879,VALID,29,VALID,0,
2014-12-05, 00:18:04,VALID,1010.74,VALID,0,INVALID,125.779,VALID,0,VALID,24.6879,VALID,29,VALID,0,
2014-12-05, 00:19:04,VALID,1010.72,VALID,0,INVALID,126.023,VALID,0,VALID,24.6879,VALID,29,VALID,0,
2014-12-05, 00:20:04,VALID,1010.73,VALID,0,INVALID,126.138,VALID,0,VALID,24.6471,VALID,29,VALID,0,
2014-12-05, 00:21:04,VALID,1010.73,VALID,0,INVALID,126.29,VALID,0,VALID,24.6684,VALID,29,VALID,0,
2014-12-05, 00:22:04,VALID,1010.71,VALID,0,INVALID,126.328,VALID,0.112112,VALID,24.6684,VALID,29,VALID,0,
2014-12-05, 00:23:04,VALID,1010.71,VALID,0,INVALID,126.671,VALID,0,VALID,24.6684,VALID,29,VALID,0,
2014-12-05, 00:24:04,VALID,1010.71,VALID,0,INVALID,127.19,VALID,0.112112,VALID,24.6471,VALID,29,VALID,0,
2014-12-05, 00:25:04,VALID,1010.68,VALID,0,INVALID,127.22,VALID,0.112112,VALID,24.6471,VALID,29,VALID,0,
2014-12-05, 00:26:04,VALID,1010.69,VALID,0,INVALID,127.35,VALID,0,VALID,24.6684,VALID,29,VALID,0,
2014-12-05, 00:27:04,VALID,1010.71,VALID,0,INVALID,127.442,VALID,0,VALID,24.6489,VALID,29,VALID,0,
2014-12-05, 00:28:04,VALID,1010.66,VALID,0,INVALID,127.472,VALID,0,VALID,24.6276,VALID,29,VALID,0,
2014-12-05, 00:29:04,VALID,1010.71,VALID,0,INVALID,127.586,VALID,0,VALID,24.6489,VALID,29,VALID,0,
2014-12-05, 00:30:04,VALID,1010.68,VALID,0,INVALID,127.647,VALID,0.112112,VALID,24.6276,VALID,29,VALID,0,
2014-12-05, 00:31:04,VALID,1010.69,VALID,0,INVALID,127.708,VALID,0,VALID,24.6081,VALID,29,VALID,0,
2014-12-05, 00:32:04,VALID,1010.67,VALID,0,INVALID,127.747,VALID,0,VALID,24.6276,VALID,29,VALID,0,
2014-12-05, 00:33:04,VALID,1010.69,VALID,0,INVALID,127.846,VALID,0.112112,VALID,24.6489,VALID,29,VALID,0,
2014-12-05, 00:34:04,VALID,1010.65,VALID,0,INVALID,127.945,VALID,0,VALID,24.6489,VALID,29,VALID,0,
2014-12-05, 00:35:04,VALID,1010.65,VALID,0,INVALID,127.96,VALID,0.112112,VALID,24.6489,VALID,29,VALID,0,
2014-12-05, 00:36:04,VALID,1010.66,VALID,0,INVALID,127.998,VALID,0.112112,VALID,24.6489,VALID,29,VALID,0,
2014-12-05, 00:37:04,VALID,1010.64,VALID,0,INVALID,128.097,VALID,0,VALID,24.6294,VALID,29,VALID,0,
2014-12-05, 00:38:04,VALID,1010.61,VALID,0,INVALID,128.341,VALID,0,VALID,24.6081,VALID,29,VALID,0,
2014-12-05, 00:39:04,VALID,1010.62,VALID,0,INVALID,128.364,VALID,0,VALID,24.6294,VALID,29,VALID,0,
2014-12-05, 00:40:04,VALID,1010.62,VALID,0,INVALID,128.387,VALID,0.112112,VALID,24.6081,VALID,29,VALID,0,
2014-12-05, 00:41:04,VALID,1010.63,VALID,0,INVALID,128.425,VALID,0.112112,VALID,24.6081,VALID,29,VALID,0,
2014-12-05, 00:42:04,VALID,1010.65,VALID,0,INVALID,128.441,VALID,0,VALID,24.6489,VALID,29,VALID,0,
2014-12-05, 00:43:04,VALID,1010.64,VALID,0,INVALID,128.471,VALID,0,VALID,24.6489,VALID,29,VALID,0,
2014-12-05, 00:44:04,VALID,1010.64,VALID,0,INVALID,128.517,VALID,0.112112,VALID,24.6294,VALID,29,VALID,0,
2014-12-05, 00:45:04,VALID,1010.6,VALID,0,INVALID,128.601,VALID,0,VALID,24.6294,VALID,29,VALID,0,
2014-12-05, 00:46:04,VALID,1010.55,VALID,0,INVALID,128.616,VALID,0.112112,VALID,24.6099,VALID,29,VALID,0,
2014-12-05, 00:47:04,VALID,1010.55,VALID,0,INVALID,128.662,VALID,0.112112,VALID,24.5886,VALID,29,VALID,0,
2014-12-05, 00:48:04,VALID,1010.53,VALID,0,INVALID,128.73,VALID,0,VALID,24.5905,VALID,29,VALID,0,
2014-12-05, 00:49:04,VALID,1010.5,VALID,0,INVALID,128.921,VALID,0.112112,VALID,24.6099,VALID,29,VALID,0,
2014-12-05, 00:50:04,VALID,1010.46,VALID,0,INVALID,128.929,VALID,0,VALID,24.5905,VALID,29,VALID,0,
2014-12-05, 00:51:04,VALID,1010.46,VALID,0,INVALID,128.997,VALID,0,VALID,24.5496,VALID,29,VALID,0,
2014-12-05, 00:52:04,VALID,1010.45,VALID,0,INVALID,129.005,VALID,0.112112,VALID,24.5691,VALID,29,VALID,0,
2014-12-05, 00:53:04,VALID,1010.42,VALID,0,INVALID,129.081,VALID,0,VALID,24.5691,VALID,29,VALID,0,
2014-12-05, 00:54:04,VALID,1010.4,VALID,0,INVALID,129.234,VALID,0.112112,VALID,24.571,VALID,29,VALID,0,
2014-12-05, 00:55:04,VALID,1010.43,VALID,0,INVALID,129.211,VALID,0,VALID,24.571,VALID,29,VALID,0,
2014-12-05, 00:56:04,VALID,1010.38,VALID,0,INVALID,129.279,VALID,0.112112,VALID,24.5496,VALID,29,VALID,0,
2014-12-05, 00:57:04,VALID,1010.37,VALID,0,INVALID,129.325,VALID,0.112112,VALID,24.571,VALID,29,VALID,0,
2014-12-05, 00:58:04,VALID,1010.37,VALID,0,INVALID,129.668,VALID,0,VALID,24.5496,VALID,29,VALID,0,
2014-12-05, 00:59:04,VALID,1010.34,VALID,0,INVALID,129.676,VALID,0,VALID,24.571,VALID,29,VALID,0,
2014-12-05, 01:00:04,VALID,1010.32,VALID,0,INVALID,129.691,VALID,0,VALID,24.571,VALID,29,VALID,0,
2014-12-05, 01:01:04,VALID,1010.28,VALID,0,INVALID,129.714,VALID,0.112112,VALID,24.571,VALID,29,VALID,0,
2014-12-05, 01:02:04,VALID,1010.29,VALID,0,INVALID,129.714,VALID,0,VALID,24.5301,VALID,29,VALID,0,
2014-12-05, 01:03:04,VALID,1010.26,VALID,0,INVALID,129.676,VALID,0,VALID,24.5515,VALID,29,VALID,0,
2014-12-05, 01:04:04,VALID,1010.26,VALID,0,INVALID,129.691,VALID,0,VALID,24.532,VALID,29,VALID,0,
2014-12-05, 01:05:04,VALID,1010.22,VALID,0,INVALID,129.706,VALID,0,VALID,24.5125,VALID,29,VALID,0,
2014-12-05, 01:06:04,VALID,1010.19,VALID,0,INVALID,129.706,VALID,0.112112,VALID,24.5125,VALID,29,VALID,0,
2014-12-05, 01:07:04,VALID,1010.16,VALID,0,INVALID,129.722,VALID,0,VALID,24.493,VALID,29,VALID,0,
2014-12-05, 01:08:04,VALID,1010.16,VALID,0,INVALID,129.722,VALID,0.112112,VALID,24.493,VALID,29,VALID,0,
2014-12-05, 01:09:04,VALID,1010.13,VALID,0,INVALID,129.699,VALID,0,VALID,24.4735,VALID,29,VALID,0,
2014-12-05, 01:10:04,VALID,1010.12,VALID,0,INVALID,129.729,VALID,0,VALID,24.4735,VALID,29,VALID,0,
2014-12-05, 01:11:04,VALID,1010.1,VALID,0,INVALID,129.76,VALID,0,VALID,24.4327,VALID,29,VALID,0,
2014-12-05, 01:12:04,VALID,1010.1,VALID,0,INVALID,129.745,VALID,0.112112,VALID,24.454,VALID,29,VALID,0,
2014-12-05, 01:13:04,VALID,1010.11,VALID,0,INVALID,129.699,VALID,0,VALID,24.4522,VALID,29,VALID,0,
2014-12-05, 01:14:04,VALID,1010.09,VALID,0,INVALID,129.684,VALID,0.112112,VALID,24.454,VALID,29,VALID,0,
2014-12-05, 01:15:04,VALID,1010.12,VALID,0,INVALID,129.653,VALID,0,VALID,24.454,VALID,29,VALID,0,
2014-12-05, 01:16:04,VALID,1010.1,VALID,0,INVALID,129.63,VALID,0,VALID,24.454,VALID,29,VALID,0,
2014-12-05, 01:17:04,VALID,1010.09,VALID,0,INVALID,129.645,VALID,0,VALID,24.4345,VALID,29,VALID,0,
2014-12-05, 01:18:04,VALID,1010.1,VALID,0,INVALID,129.706,VALID,0,VALID,24.3937,VALID,29,VALID,0,
2014-12-05, 01:19:04,VALID,1010.1,VALID,0,INVALID,129.752,VALID,0,VALID,24.3956,VALID,29,VALID,0,
2014-12-05, 01:20:04,VALID,1010.12,VALID,0,INVALID,129.79,VALID,0,VALID,24.3956,VALID,29,VALID,0,
2014-12-05, 01:21:04,VALID,1010.11,VALID,0,INVALID,129.806,VALID,0.112112,VALID,24.3761,VALID,29,VALID,0,
2014-12-05, 01:22:04,VALID,1010.14,VALID,0,INVALID,129.851,VALID,0,VALID,24.3566,VALID,29,VALID,0,
2014-12-05, 01:23:04,VALID,1010.18,VALID,0,INVALID,129.821,VALID,0,VALID,24.3352,VALID,29,VALID,0,
2014-12-05, 01:24:04,VALID,1010.14,VALID,0,INVALID,129.844,VALID,0.112112,VALID,24.3371,VALID,29,VALID,0,
2014-12-05, 01:25:04,VALID,1010.16,VALID,0,INVALID,129.821,VALID,0,VALID,24.3371,VALID,29,VALID,0,
2014-12-05, 01:26:04,VALID,1010.15,VALID,0,INVALID,129.813,VALID,0,VALID,24.2981,VALID,29,VALID,0,
2014-12-05, 01:27:04,VALID,1010.15,VALID,0,INVALID,129.851,VALID,0,VALID,24.2768,VALID,29,VALID,0,
2014-12-05, 01:28:04,VALID,1010.15,VALID,0,INVALID,129.821,VALID,0,VALID,24.2768,VALID,29,VALID,0,
2014-12-05, 01:29:04,VALID,1010.15,VALID,0,INVALID,129.79,VALID,0,VALID,24.2768,VALID,29,VALID,0,
2014-12-05, 01:30:04,VALID,1010.15,VALID,0,INVALID,129.676,VALID,0,VALID,24.2981,VALID,29,VALID,0,
2014-12-05, 01:31:04,VALID,1010.14,VALID,0,INVALID,129.569,VALID,0.112112,VALID,24.3176,VALID,29,VALID,0,
2014-12-05, 01:32:04,VALID,1010.13,VALID,0,INVALID,129.493,VALID,0,VALID,24.3371,VALID,29,VALID,0,
2014-12-05, 01:33:04,VALID,1010.13,VALID,0,INVALID,129.371,VALID,0.112112,VALID,24.3566,VALID,29,VALID,0,
2014-12-05, 01:34:04,VALID,1010.11,VALID,0,INVALID,129.279,VALID,0,VALID,24.3761,VALID,29,VALID,0,
2014-12-05, 01:35:04,VALID,1010.11,VALID,0,INVALID,129.272,VALID,0,VALID,24.3761,VALID,29,VALID,0,
2014-12-05, 01:36:04,VALID,1010.09,VALID,0,INVALID,129.249,VALID,0,VALID,24.3761,VALID,29,VALID,0,
2014-12-05, 01:37:04,VALID,1010.07,VALID,0,INVALID,129.257,VALID,0,VALID,24.3956,VALID,29,VALID,0,
2014-12-05, 01:38:04,VALID,1010.09,VALID,0,INVALID,129.249,VALID,0,VALID,24.415,VALID,29,VALID,0,
2014-12-05, 01:39:04,VALID,1010.08,VALID,0,INVALID,129.279,VALID,0,VALID,24.3937,VALID,29,VALID,0,
2014-12-05, 01:40:04,VALID,1010.03,VALID,0,INVALID,129.409,VALID,0,VALID,24.3956,VALID,29,VALID,0,
2014-12-05, 01:41:04,VALID,1010.01,VALID,0,INVALID,129.501,VALID,0,VALID,24.415,VALID,29,VALID,0,
2014-12-05, 01:42:04,VALID,1010.03,VALID,0,INVALID,129.531,VALID,0,VALID,24.3956,VALID,29,VALID,0,
2014-12-05, 01:43:04,VALID,1010.02,VALID,0,INVALID,129.577,VALID,0,VALID,24.3742,VALID,29,VALID,0,
2014-12-05, 01:44:04,VALID,1010.01,VALID,0,INVALID,129.623,VALID,0,VALID,24.415,VALID,29,VALID,0,
2014-12-05, 01:45:04,VALID,1010,VALID,0,INVALID,129.638,VALID,0.112112,VALID,24.3956,VALID,29,VALID,0,
2014-12-05, 01:46:04,VALID,1010,VALID,0,INVALID,129.691,VALID,0,VALID,24.3956,VALID,29,VALID,0,
2014-12-05, 01:47:04,VALID,1010.01,VALID,0,INVALID,129.714,VALID,0,VALID,24.3956,VALID,29,VALID,0,
2014-12-05, 01:48:04,VALID,1010.01,VALID,0,INVALID,129.722,VALID,0,VALID,24.3547,VALID,29,VALID,0,
2014-12-05, 01:49:04,VALID,1010.06,VALID,0,INVALID,129.76,VALID,0,VALID,24.3761,VALID,29,VALID,0,
2014-12-05, 01:50:04,VALID,1010.06,VALID,0,INVALID,129.79,VALID,0,VALID,24.3956,VALID,29,VALID,0,
2014-12-05, 01:51:04,VALID,1010.06,VALID,0,INVALID,129.806,VALID,0,VALID,24.3956,VALID,29,VALID,0,
2014-12-05, 01:52:04,VALID,1010.06,VALID,0,INVALID,129.867,VALID,0.112112,VALID,24.3761,VALID,29,VALID,0,
2014-12-05, 01:53:04,VALID,1010.08,VALID,0,INVALID,129.981,VALID,0,VALID,24.3547,VALID,29,VALID,0,
2014-12-05, 01:54:04,VALID,1010.07,VALID,0,INVALID,130.477,VALID,0,VALID,24.3566,VALID,29,VALID,0,
2014-12-05, 01:55:04,VALID,1010.07,VALID,0,INVALID,130.545,VALID,0,VALID,24.3761,VALID,29,VALID,0,
2014-12-05, 01:56:04,VALID,1010.08,VALID,0,INVALID,130.561,VALID,0,VALID,24.3779,VALID,29,VALID,0,
2014-12-05, 01:57:04,VALID,1010.07,VALID,0,INVALID,130.599,VALID,0.112112,VALID,24.3566,VALID,29,VALID,0,
2014-12-05, 01:58:04,VALID,1010.04,VALID,0,INVALID,130.599,VALID,0,VALID,24.3566,VALID,29,VALID,0,
2014-12-05, 01:59:04,VALID,1010.04,VALID,0,INVALID,130.637,VALID,0,VALID,24.3371,VALID,29,VALID,0,
2014-12-05, 02:00:04,VALID,1010.07,VALID,0,INVALID,130.66,VALID,0.112112,VALID,24.3371,VALID,29,VALID,0,
2014-12-05, 02:01:04,VALID,1010.06,VALID,0,INVALID,130.705,VALID,0,VALID,24.3371,VALID,29,VALID,0,
2014-12-05, 02:02:04,VALID,1010.07,VALID,0,INVALID,130.759,VALID,0,VALID,24.3371,VALID,29,VALID,0,
2014-12-05, 02:03:04,VALID,1010.08,VALID,0,INVALID,130.751,VALID,0,VALID,24.3371,VALID,29,VALID,0,
2014-12-05, 02:04:04,VALID,1010.08,VALID,0,INVALID,130.751,VALID,0,VALID,24.3371,VALID,29,VALID,0,
2014-12-05, 02:05:04,VALID,1010.08,VALID,0,INVALID,130.774,VALID,0.112112,VALID,24.3566,VALID,29,VALID,0,
2014-12-05, 02:06:04,VALID,1010.08,VALID,0,INVALID,130.728,VALID,0,VALID,24.3352,VALID,29,VALID,0,
2014-12-05, 02:07:04,VALID,1010.05,VALID,0,INVALID,130.705,VALID,0,VALID,24.3352,VALID,29,VALID,0,
2014-12-05, 02:08:04,VALID,1010.05,VALID,0,INVALID,130.744,VALID,0.112112,VALID,24.3352,VALID,29,VALID,0,
2014-12-05, 02:09:04,VALID,1010.06,VALID,0,INVALID,130.759,VALID,0.112112,VALID,24.3566,VALID,29,VALID,0,
2014-12-05, 02:10:04,VALID,1010.06,VALID,0,INVALID,130.744,VALID,0,VALID,24.3371,VALID,29,VALID,0,
2014-12-05, 02:11:04,VALID,1010.04,VALID,0,INVALID,130.705,VALID,0.112112,VALID,24.3566,VALID,29,VALID,0,
2014-12-05, 02:12:04,VALID,1010.02,VALID,0,INVALID,130.782,VALID,0.112112,VALID,24.3371,VALID,29,VALID,0,
2014-12-05, 02:13:04,VALID,1010.06,VALID,0,INVALID,130.835,VALID,0.112112,VALID,24.3176,VALID,29,VALID,0,
2014-12-05, 02:14:04,VALID,1010.04,VALID,0,INVALID,130.965,VALID,0.112112,VALID,24.2981,VALID,29,VALID,0,
2014-12-05, 02:15:04,VALID,1010.05,VALID,0,INVALID,130.988,VALID,0,VALID,24.2768,VALID,29,VALID,0,
2014-12-05, 02:16:04,VALID,1010.06,VALID,0,INVALID,131.01,VALID,0.112112,VALID,24.2573,VALID,29,VALID,0,
2014-12-05, 02:17:04,VALID,1010.03,VALID,0,INVALID,131.01,VALID,0,VALID,24.2981,VALID,29,VALID,0,
2014-12-05, 02:18:04,VALID,1010.03,VALID,0,INVALID,131.003,VALID,0.112112,VALID,24.2786,VALID,29,VALID,0,
2014-12-05, 02:19:04,VALID,1010.06,VALID,0,INVALID,131.041,VALID,0,VALID,24.2786,VALID,29,VALID,0,
2014-12-05, 02:20:04,VALID,1010.04,VALID,0,INVALID,131.064,VALID,0,VALID,24.2786,VALID,29,VALID,0,
2014-12-05, 02:21:04,VALID,1010.02,VALID,0,INVALID,131.102,VALID,0.112112,VALID,24.2981,VALID,29,VALID,0,
2014-12-05, 02:22:04,VALID,1010.02,VALID,0,INVALID,131.148,VALID,0.112112,VALID,24.2573,VALID,29,VALID,0,
2014-12-05, 02:23:04,VALID,1010,VALID,0,INVALID,131.171,VALID,0.112112,VALID,24.2573,VALID,29,VALID,0,
2014-12-05, 02:24:04,VALID,1009.99,VALID,0,INVALID,131.148,VALID,0,VALID,24.2591,VALID,29,VALID,0,
2014-12-05, 02:25:04,VALID,1009.97,VALID,0,INVALID,131.094,VALID,0.112112,VALID,24.2591,VALID,29,VALID,0,
2014-12-05, 02:26:04,VALID,1010,VALID,0,INVALID,131.071,VALID,0,VALID,24.2396,VALID,29,VALID,0,
2014-12-05, 02:27:04,VALID,1009.97,VALID,0,INVALID,131.056,VALID,0.112112,VALID,24.2591,VALID,29,VALID,0,
2014-12-05, 02:28:04,VALID,1009.96,VALID,0,INVALID,131.041,VALID,0,VALID,24.2591,VALID,29,VALID,0,
2014-12-05, 02:29:04,VALID,1009.94,VALID,0,INVALID,130.965,VALID,0,VALID,24.2183,VALID,29,VALID,0,
2014-12-05, 02:30:04,VALID,1009.92,VALID,0,INVALID,130.919,VALID,0.112112,VALID,24.2591,VALID,29,VALID,0,
2014-12-05, 02:31:04,VALID,1009.89,VALID,0,INVALID,130.904,VALID,0.112112,VALID,24.2591,VALID,29,VALID,0,
2014-12-05, 02:32:04,VALID,1009.91,VALID,0,INVALID,130.843,VALID,0,VALID,24.2396,VALID,29,VALID,0,
2014-12-05, 02:33:04,VALID,1009.88,VALID,0,INVALID,130.866,VALID,0.112112,VALID,24.2183,VALID,29,VALID,0,
2014-12-05, 02:34:04,VALID,1009.87,VALID,0,INVALID,130.904,VALID,0.112112,VALID,24.2183,VALID,29,VALID,0,
2014-12-05, 02:35:04,VALID,1009.87,VALID,0,INVALID,130.934,VALID,0.112112,VALID,24.1988,VALID,29,VALID,0,
2014-12-05, 02:36:04,VALID,1009.85,VALID,0,INVALID,130.843,VALID,0.112112,VALID,24.2202,VALID,29,VALID,0,
2014-12-05, 02:37:04,VALID,1009.82,VALID,0,INVALID,130.827,VALID,0.112112,VALID,24.1793,VALID,29,VALID,0,
2014-12-05, 02:38:04,VALID,1009.81,VALID,0,INVALID,130.736,VALID,0.112112,VALID,24.1599,VALID,29,VALID,0,
2014-12-05, 02:39:04,VALID,1009.84,VALID,0,INVALID,130.751,VALID,0,VALID,24.1599,VALID,29,VALID,0,
2014-12-05, 02:40:04,VALID,1009.84,VALID,0,INVALID,130.705,VALID,0.112112,VALID,24.1599,VALID,29,VALID,0,
2014-12-05, 02:41:04,VALID,1009.83,VALID,0,INVALID,130.629,VALID,0,VALID,24.1812,VALID,29,VALID,0,
2014-12-05, 02:42:04,VALID,1009.8,VALID,0,INVALID,130.522,VALID,0,VALID,24.1812,VALID,29,VALID,0,
2014-12-05, 02:43:04,VALID,1009.79,VALID,0,INVALID,130.492,VALID,0,VALID,24.1404,VALID,29,VALID,0,
2014-12-05, 02:44:04,VALID,1009.82,VALID,0,INVALID,130.492,VALID,0.112112,VALID,24.1209,VALID,29,VALID,0,
2014-12-05, 02:45:04,VALID,1009.8,VALID,0,INVALID,130.37,VALID,0.112112,VALID,24.1227,VALID,29,VALID,0,
2014-12-05, 02:46:04,VALID,1009.82,VALID,0,INVALID,130.271,VALID,0.112112,VALID,24.1227,VALID,29,VALID,0,
2014-12-05, 02:47:04,VALID,1009.82,VALID,0,INVALID,130.08,VALID,0.112112,VALID,24.1014,VALID,29,VALID,0,
2014-12-05, 02:48:04,VALID,1009.83,VALID,0,INVALID,129.973,VALID,0.112112,VALID,24.1227,VALID,29,VALID,0,
2014-12-05, 02:49:04,VALID,1009.82,VALID,0,INVALID,129.813,VALID,0,VALID,24.1227,VALID,29,VALID,0,
2014-12-05, 02:50:04,VALID,1009.84,VALID,0,INVALID,129.813,VALID,0,VALID,24.1227,VALID,29,VALID,0,
2014-12-05, 02:51:04,VALID,1009.83,VALID,0,INVALID,130.019,VALID,0,VALID,24.1014,VALID,29,VALID,0,
2014-12-05, 02:52:04,VALID,1009.85,VALID,0,INVALID,129.935,VALID,0,VALID,24.1227,VALID,29,VALID,0,
2014-12-05, 02:53:04,VALID,1009.85,VALID,0,INVALID,129.889,VALID,0.112112,VALID,24.0819,VALID,29,VALID,0,
2014-12-05, 02:54:04,VALID,1009.88,VALID,0,INVALID,129.813,VALID,0.112112,VALID,24.1032,VALID,29,VALID,0,
2014-12-05, 02:55:04,VALID,1009.9,VALID,0,INVALID,129.737,VALID,0,VALID,24.1032,VALID,29,VALID,0,
2014-12-05, 02:56:04,VALID,1009.9,VALID,0,INVALID,129.638,VALID,0.112112,VALID,24.0624,VALID,29,VALID,0,
2014-12-05, 02:57:04,VALID,1009.89,VALID,0,INVALID,129.569,VALID,0,VALID,24.0643,VALID,29,VALID,0,
2014-12-05, 02:58:04,VALID,1009.96,VALID,0,INVALID,129.325,VALID,0,VALID,24.0643,VALID,29,VALID,0,
2014-12-05, 02:59:04,VALID,1009.94,VALID,0,INVALID,129.356,VALID,0,VALID,24.0643,VALID,29,VALID,0,
2014-12-05, 03:00:04,VALID,1009.95,VALID,0,INVALID,129.226,VALID,0.112112,VALID,24.0448,VALID,29,VALID,0,
2014-12-05, 03:01:04,VALID,1009.98,VALID,0,INVALID,129.058,VALID,0.112112,VALID,24.0448,VALID,29,VALID,0,
2014-12-05, 03:02:04,VALID,1009.98,VALID,0,INVALID,128.997,VALID,0.112112,VALID,24.0253,VALID,30,VALID,0,
2014-12-05, 03:03:04,VALID,1009.98,VALID,0,INVALID,128.837,VALID,0.112112,VALID,24.0235,VALID,30,VALID,0,
2014-12-05, 03:04:04,VALID,1010,VALID,0,INVALID,128.639,VALID,0,VALID,24.0253,VALID,30,VALID,0,
2014-12-05, 03:05:04,VALID,1010,VALID,0,INVALID,128.494,VALID,0.112112,VALID,24.0448,VALID,30,VALID,0,
2014-12-05, 03:06:04,VALID,1010.01,VALID,0,INVALID,128.425,VALID,0.112112,VALID,24.0058,VALID,30,VALID,0,
2014-12-05, 03:07:04,VALID,1010.03,VALID,0,INVALID,128.38,VALID,0.112112,VALID,24.0058,VALID,30,VALID,0,
2014-12-05, 03:08:04,VALID,1010.01,VALID,0,INVALID,128.265,VALID,0.112112,VALID,23.9668,VALID,30,VALID,0,
2014-12-05, 03:09:04,VALID,1010.02,VALID,0,INVALID,128.158,VALID,0,VALID,23.965,VALID,30,VALID,0,
2014-12-05, 03:10:04,VALID,1010.04,VALID,0,INVALID,128.09,VALID,0.112112,VALID,23.9668,VALID,30,VALID,0,
2014-12-05, 03:11:04,VALID,1010.02,VALID,0,INVALID,127.945,VALID,0,VALID,23.9473,VALID,30,VALID,0,
2014-12-05, 03:12:04,VALID,1010.05,VALID,0,INVALID,127.823,VALID,0,VALID,23.9668,VALID,30,VALID,0,
2014-12-05, 03:13:04,VALID,1010.05,VALID,0,INVALID,127.731,VALID,0.112112,VALID,23.9668,VALID,30,VALID,0,
2014-12-05, 03:14:04,VALID,1010.04,VALID,0,INVALID,127.647,VALID,0,VALID,23.9473,VALID,30,VALID,0,
2014-12-05, 03:15:04,VALID,1010.06,VALID,0,INVALID,127.777,VALID,0.112112,VALID,23.9473,VALID,30,VALID,0,
2014-12-05, 03:16:04,VALID,1010.04,VALID,0,INVALID,127.747,VALID,0.112112,VALID,23.9065,VALID,30,VALID,0,
2014-12-05, 03:17:04,VALID,1010.04,VALID,0,INVALID,127.724,VALID,0,VALID,23.9084,VALID,30,VALID,0,
2014-12-05, 03:18:04,VALID,1010.05,VALID,0,INVALID,127.609,VALID,0.112112,VALID,23.9084,VALID,30,VALID,0,
2014-12-05, 03:19:04,VALID,1010.08,VALID,0,INVALID,127.548,VALID,0,VALID,23.9084,VALID,30,VALID,0,
2014-12-05, 03:20:04,VALID,1010.05,VALID,0,INVALID,127.487,VALID,0,VALID,23.8889,VALID,30,VALID,0,
2014-12-05, 03:21:04,VALID,1010.06,VALID,0,INVALID,127.434,VALID,0,VALID,23.8889,VALID,30,VALID,0,
2014-12-05, 03:22:04,VALID,1010.08,VALID,0,INVALID,127.373,VALID,0,VALID,23.8889,VALID,30,VALID,0,
2014-12-05, 03:23:04,VALID,1010.06,VALID,0,INVALID,127.327,VALID,0.112112,VALID,23.8694,VALID,30,VALID,0,
2014-12-05, 03:24:04,VALID,1010.05,VALID,0,INVALID,127.213,VALID,0,VALID,23.8499,VALID,30,VALID,0,
2014-12-05, 03:25:04,VALID,1010.05,VALID,0,INVALID,127.091,VALID,0.112112,VALID,23.8694,VALID,30,VALID,0,
2014-12-05, 03:26:04,VALID,1010.04,VALID,0,INVALID,126.999,VALID,0,VALID,23.8499,VALID,30,VALID,0,
2014-12-05, 03:27:04,VALID,1010.03,VALID,0,INVALID,126.915,VALID,0,VALID,23.8694,VALID,30,VALID,0,
2014-12-05, 03:28:04,VALID,1010.04,VALID,0,INVALID,126.954,VALID,0.112112,VALID,23.8694,VALID,30,VALID,0,
2014-12-05, 03:29:04,VALID,1010.03,VALID,0,INVALID,126.832,VALID,0.112112,VALID,23.8694,VALID,30,VALID,0,
2014-12-05, 03:30:04,VALID,1010.06,VALID,0,INVALID,127.167,VALID,0,VALID,23.8499,VALID,30,VALID,0,
2014-12-05, 03:31:04,VALID,1010.05,VALID,0,INVALID,127.251,VALID,0,VALID,23.8694,VALID,30,VALID,0,
2014-12-05, 03:32:04,VALID,1010.05,VALID,0,INVALID,127.899,VALID,0,VALID,23.8499,VALID,30,VALID,0,
2014-12-05, 03:33:04,VALID,1010.05,VALID,0,INVALID,127.823,VALID,0,VALID,23.8907,VALID,30,VALID,0,
2014-12-05, 03:34:04,VALID,1010.03,VALID,0,INVALID,127.785,VALID,0,VALID,23.8712,VALID,30,VALID,0,
2014-12-05, 03:35:04,VALID,1010,VALID,0,INVALID,127.67,VALID,0,VALID,23.8889,VALID,30,VALID,0,
2014-12-05, 03:36:04,VALID,1010,VALID,0,INVALID,127.586,VALID,0,VALID,23.8889,VALID,30,VALID,0,
2014-12-05, 03:37:04,VALID,1010.01,VALID,0,INVALID,127.564,VALID,0.112112,VALID,23.8889,VALID,30,VALID,0,
2014-12-05, 03:38:04,VALID,1010,VALID,0,INVALID,127.503,VALID,0,VALID,23.8889,VALID,30,VALID,0,
2014-12-05, 03:39:04,VALID,1010.02,VALID,0,INVALID,127.739,VALID,0,VALID,23.8694,VALID,30,VALID,0,
2014-12-05, 03:40:04,VALID,1010.04,VALID,0,INVALID,127.747,VALID,0,VALID,23.8694,VALID,30,VALID,0,
2014-12-05, 03:41:04,VALID,1010.02,VALID,0,INVALID,127.762,VALID,0,VALID,23.8694,VALID,30,VALID,0,
2014-12-05, 03:42:04,VALID,1010.03,VALID,0,INVALID,127.777,VALID,0.112112,VALID,23.8481,VALID,30,VALID,0,
2014-12-05, 03:43:04,VALID,1010.02,VALID,0,INVALID,127.777,VALID,0,VALID,23.8499,VALID,30,VALID,0,
2014-12-05, 03:44:04,VALID,1010.03,VALID,0,INVALID,127.762,VALID,0,VALID,23.8499,VALID,30,VALID,0,
2014-12-05, 03:45:04,VALID,1010.05,VALID,0,INVALID,127.708,VALID,0,VALID,23.8694,VALID,30,VALID,0,
2014-12-05, 03:46:04,VALID,1010.06,VALID,0,INVALID,127.594,VALID,0.112112,VALID,23.8694,VALID,30,VALID,0,
2014-12-05, 03:47:04,VALID,1010.05,VALID,0,INVALID,127.564,VALID,0,VALID,23.8694,VALID,30,VALID,0,
2014-12-05, 03:48:04,VALID,1010.08,VALID,0,INVALID,127.464,VALID,0.112112,VALID,23.8676,VALID,30,VALID,0,
2014-12-05, 03:49:04,VALID,1010.08,VALID,0,INVALID,127.358,VALID,0,VALID,23.9084,VALID,30,VALID,0,
2014-12-05, 03:50:04,VALID,1010.11,VALID,0,INVALID,127.373,VALID,0,VALID,23.9102,VALID,30,VALID,0,
2014-12-05, 03:51:04,VALID,1010.11,VALID,0,INVALID,127.426,VALID,0.112112,VALID,23.8694,VALID,30,VALID,0,